Wind_Speed
24 24 24 24 23 21 20 19 17 17 15 14 13 13 12 11 8 7 9 12 12 10 9 7 7 7 7 7 7 8 9 9 10 10 10 10 9 8 8 7 6 7
24 23 23 22 21 20 19 19 17 15 13 12 12 12 13 12 10 9 10 12 13 11 10 8 8 7 7 8 8 8 9 10 11 12 11 12 11 10 9 8 7 7
24 22 21 20 20 20 20 19 16 13 11 11 11 13 14 13 12 10 9 12 13 13 11 8 8 8 8 9 9 8 10 12 14 14 14 14 13 13 12 11 10 9
23 21 20 20 19 19 19 18 16 14 12 11 11 13 15 14 12 11 11 12 13 13 11 8 7 8 9 10 10 11 12 14 14 14 14 14 14 14 14 12 12 11
22 21 19 19 19 18 18 18 16 15 13 11 12 13 14 14 12 12 12 12 12 12 10 8 8 9 11 11 12 12 13 13 12 11 11 12 12 12 13 13 13 12
20 19 19 19 19 18 20 19 17 15 14 12 13 13 13 13 12 12 14 13 12 11 10 9 9 10 11 11 12 12 12 11 10 8 9 10 11 12 12 12 13 13
19 19 19 19 20 19 19 19 16 13 14 13 13 13 13 12 11 12 14 13 11 10 10 9 10 10 10 10 11 12 11 10 9 9 10 11 11 11 11 11 12 14
20 19 19 19 21 20 17 17 15 13 14 15 13 13 12 11 12 13 12 11 10 9 9 10 10 10 10 10 10 12 11 10 9 9 10 10 9 10 10 9 10 12
19 18 18 19 20 18 14 13 14 14 16 16 14 13 13 12 12 13 12 11 11 10 9 10 10 10 10 10 10 11 11 10 9 9 8 8 8 8 8 7 7 9
20 19 20 19 18 15 12 13 15 17 18 17 15 14 15 13 12 13 14 13 12 11 10 10 11 11 10 10 10 10 10 9 8 8 7 7 7 6 5 4 4 5
23 22 23 22 20 15 12 15 18 18 19 17 15 15 15 13 13 14 15 14 13 13 12 11 12 11 10 10 10 9 8 8 8 7 6 5 5 5 4 3 3 4
25 24 23 22 20 16 14 17 20 19 19 18 16 16 16 14 13 15 15 15 14 13 13 12 12 11 11 10 10 9 9 9 9 8 7 7 6 6 4 3 3 4
25 25 23 19 14 13 14 18 20 20 19 18 17 17 17 15 14 14 13 14 15 15 14 13 12 11 11 11 10 9 9 11 11 10 10 10 9 8 6 4 4 4
27 25 24 18 12 12 14 17 20 21 21 20 19 18 18 16 15 14 13 14 15 15 15 14 14 13 12 12 12 12 11 12 13 13 13 12 11 10 9 8 8 7
28 26 25 20 16 16 17 19 22 23 22 20 20 19 17 16 15 14 14 15 16 16 16 16 17 16 15 14 14 15 15 14 14 15 15 14 12 12 11 12 11 11
25 25 25 23 21 21 20 18 19 21 19 17 17 17 16 16 16 16 16 17 17 18 18 19 19 19 18 17 16 17 18 18 17 16 17 16 15 14 14 15 15 14
19 20 20 20 21 21 19 17 18 18 16 14 14 13 13 14 16 16 16 17 19 19 19 20 21 21 21 20 19 19 20 20 19 19 19 19 18 18 17 17 17 17
13 14 13 13 14 14 13 13 16 16 13 11 11 10 10 10 11 12 13 15 16 16 16 17 19 21 23 23 23 22 22 22 22 22 22 21 21 21 21 20 19 19
15 14 13 11 9 9 9 10 11 11 10 8 9 9 8 7 6 6 6 8 9 9 10 11 12 14 18 21 23 23 23 24 24 24 24 24 24 24 23 22 22 21
23 23 21 16 12 12 12 11 10 8 7 6 6 6 5 4 3 2 2 2 4 5 6 7 8 10 12 15 18 19 20 22 23 24 24 25 25 25 24 24 23 23
28 27 26 23 20 18 18 16 14 12 9 7 6 5 4 3 2 0 1 3 3 4 6 7 8 10 11 13 15 16 17 19 20 22 23 24 25 25 25 25 25 25
27 27 26 25 23 22 21 20 18 16 14 12 10 9 8 7 5 3 3 3 5 6 8 9 9 10 12 14 15 17 18 19 20 21 23 24 25 26 26 26 25 25
25 25 24 23 23 22 21 20 19 17 16 13 12 12 10 9 9 7 6 5 4 5 7 9 10 11 12 13 14 16 18 19 20 22 23 24 25 25 25 25 25 25
23 23 23 22 21 21 20 18 17 17 16 14 13 12 11 10 9 8 8 7 6 7 7 8 9 9 11 13 14 15 17 19 20 21 22 23 24 24 24 24 25 25
21 21 21 21 20 19 18 17 16 15 14 13 13 12 11 11 10 9 9 9 9 9 9 9 10 9 9 11 13 15 16 19 20 21 22 23 24 24 24 24 25 26
19 19 19 19 19 18 17 16 15 15 14 14 13 13 12 11 11 10 10 9 9 9 10 10 12 12 11 11 12 13 15 17 21 24 24 24 25 26 25 25 25 26
Wind_Direction
181 180 179 179 180 178 172 166 162 158 157 160 166 171 169 165 162 161 165 166 162 156 153 153 158 166 167 162 159 153 146 141 138 135 135 137 140 144 146 150 167 187
178 178 178 180 181 178 174 172 170 165 161 163 167 172 172 170 169 169 168 170 170 164 160 163 167 173 174 169 164 157 149 141 135 134 131 127 127 132 135 139 146 166
177 178 180 183 181 176 175 177 178 176 175 177 178 178 177 173 172 174 171 172 174 168 166 171 173 178 180 172 164 155 150 144 137 132 129 124 122 123 126 132 134 140
179 181 183 185 180 176 178 179 180 181 182 184 185 180 178 176 175 177 173 170 172 170 170 176 177 179 179 172 163 153 147 146 141 138 134 129 127 125 125 130 133 133
181 182 184 183 179 178 184 184 181 181 182 184 185 181 179 178 177 176 172 168 169 171 173 175 173 169 168 168 164 156 151 149 146 147 146 140 137 133 129 131 135 139
177 181 185 184 182 184 189 189 182 180 183 186 189 188 184 180 177 175 173 171 170 172 174 176 174 169 167 169 167 161 158 158 159 165 162 153 150 146 139 135 135 140
173 179 186 188 189 191 192 188 181 181 186 190 193 192 189 185 180 175 174 174 175 177 180 183 182 179 178 179 176 171 168 168 172 174 165 155 152 151 149 143 138 140
172 176 185 194 196 195 192 185 179 185 191 193 195 194 189 184 179 176 177 179 181 182 185 188 190 191 192 191 186 180 177 173 172 171 165 156 149 147 146 142 138 139
173 178 186 196 197 192 190 186 182 190 194 194 196 194 185 179 179 181 184 186 186 184 185 186 189 191 190 187 184 181 179 175 172 174 175 170 163 153 147 143 139 136
181 187 189 195 198 191 191 194 190 191 194 195 198 194 185 181 184 188 189 188 186 187 186 185 185 187 187 187 186 184 184 185 185 186 184 181 179 174 165 165 164 152
186 190 191 195 198 194 195 200 194 192 193 195 199 195 187 185 187 188 189 186 186 190 190 187 187 191 197 199 199 201 204 207 206 204 204 204 202 197 191 198 213 211
185 187 186 187 192 194 201 201 195 193 194 195 199 197 191 188 185 186 189 189 190 195 195 192 193 199 206 207 209 219 224 221 217 217 226 237 236 227 222 221 233 245
177 178 175 176 187 195 201 202 196 196 197 195 198 199 193 191 187 185 189 191 193 198 200 201 201 205 209 212 218 226 223 217 218 224 232 238 240 237 235 233 230 243
171 172 171 177 192 193 195 205 204 201 201 198 199 199 195 194 192 189 188 189 193 199 203 206 208 210 210 214 222 225 218 215 221 228 231 232 235 236 235 235 235 240
167 168 172 181 195 196 198 209 209 203 202 200 201 203 200 198 200 201 202 201 203 206 208 208 209 211 213 215 220 222 219 219 225 230 231 229 230 231 231 234 238 242
163 166 172 179 188 194 198 204 202 198 199 201 205 208 208 207 209 212 215 217 217 218 218 217 215 216 218 219 219 220 220 221 224 228 229 229 229 228 228 231 235 240
160 165 170 174 181 189 192 188 186 188 195 205 208 208 211 213 215 219 223 225 226 227 229 229 227 225 225 226 225 224 224 223 225 227 228 230 232 231 231 233 235 239
149 154 155 158 167 177 176 171 173 177 184 192 190 187 191 196 205 215 220 221 224 229 233 235 235 234 233 232 232 230 230 230 231 231 231 232 234 235 237 238 240 243
116 118 116 119 128 129 127 142 157 161 161 154 143 147 156 157 168 188 200 210 217 223 228 232 235 237 237 237 237 236 236 237 236 236 236 236 236 238 239 239 241 243
96 97 98 102 103 98 99 106 113 119 131 135 128 134 144 141 141 152 176 219 231 234 238 237 235 236 238 239 240 240 239 239 239 239 240 239 239 239 240 242 246 248
83 85 88 92 93 91 91 89 89 94 100 99 100 107 104 95 93 52 294 283 277 272 268 260 249 244 240 239 240 241 242 241 242 243 245 246 247 246 248 250 253 254
73 75 75 77 80 82 80 77 76 79 81 81 83 86 82 77 71 50 2 317 296 288 284 278 270 261 252 246 244 243 243 244 245 247 250 252 253 255 256 257 257 257
62 64 64 64 66 66 65 64 63 63 63 64 67 67 64 60 56 48 35 14 346 324 308 295 286 280 272 265 258 253 251 250 249 248 249 252 255 256 258 259 259 258
56 56 56 55 54 53 52 52 51 50 47 46 47 47 45 41 38 36 32 21 7 358 345 323 307 299 290 281 275 271 266 261 258 256 254 255 258 260 261 262 263 263
50 50 50 50 49 47 44 42 41 40 37 35 36 37 34 29 23 23 24 16 5 357 349 335 321 316 310 296 285 280 274 269 263 260 258 258 260 262 263 264 263 264
49 47 46 46 46 44 41 38 34 30 27 25 25 25 22 17 14 13 11 7 1 353 347 339 327 319 317 313 300 287 277 271 263 257 256 259 260 261 263 265 265 265
Height
811 813 815 817 819 821 822 822 823 823 824 825 825 826 826 827 828 828 829 830 831 832 832 833 833 833 834 834 834 834 834 834 834 834 834 835 835 836 836 836 836 836
811 814 815 817 819 821 822 823 824 824 824 825 826 826 827 827 828 829 830 831 831 832 833 833 834 834 834 835 835 835 834 834 835 835 836 836 836 836 836 837 837 837
812 814 816 818 820 821 823 823 824 824 825 825 826 826 827 828 829 829 830 831 832 833 833 834 834 835 835 835 836 836 835 836 836 836 837 837 837 838 837 838 838 838
813 815 816 818 820 822 823 823 823 824 825 826 826 827 827 828 829 830 831 832 833 833 834 834 835 835 836 836 836 836 836 837 837 837 838 838 839 839 839 839 839 839
813 815 816 818 820 821 822 822 822 823 825 826 827 827 828 828 829 830 831 832 833 834 835 835 836 836 836 837 837 838 838 838 838 839 839 839 840 840 840 840 840 841
814 815 816 818 819 820 821 821 821 823 825 827 827 828 829 829 830 831 831 832 833 834 835 836 836 837 837 838 838 839 839 839 840 839 840 840 841 842 842 842 842 842
812 814 816 818 819 820 820 820 821 823 825 828 828 829 829 830 831 831 832 832 833 834 835 836 837 837 838 839 839 840 840 841 841 841 841 841 842 843 843 844 843 843
810 813 816 818 819 821 821 820 821 823 826 828 828 829 829 830 831 832 833 834 834 835 836 836 837 837 838 839 840 841 842 842 842 842 843 843 843 844 844 845 845 845
810 813 816 819 821 821 821 820 821 823 826 828 828 828 829 830 831 832 833 834 835 836 836 837 837 838 839 840 841 842 842 843 843 844 844 844 845 845 845 845 846 845
812 814 816 819 821 821 820 821 822 823 826 828 828 828 828 829 830 831 833 834 835 836 837 837 838 839 840 841 842 843 843 844 844 844 845 845 846 846 846 846 846 846
812 815 817 819 820 820 820 821 822 824 826 827 828 828 828 828 829 831 832 834 835 836 837 838 839 840 841 841 842 843 844 844 844 845 845 846 846 846 846 846 845 845
811 814 817 818 819 819 820 821 822 824 825 826 827 828 828 828 829 831 832 834 835 836 837 838 839 840 841 841 842 843 844 844 845 845 846 846 847 847 847 846 845 846
810 813 815 818 819 820 821 822 823 824 825 826 827 828 828 828 829 830 832 834 835 836 837 838 839 840 840 841 842 842 843 844 845 846 846 847 847 847 847 846 846 847
809 812 814 817 819 821 823 824 824 825 825 826 827 828 828 829 829 831 832 834 835 836 837 838 839 839 840 841 841 842 843 844 844 846 846 847 847 847 847 847 847 848
808 810 813 816 819 822 823 824 825 825 826 826 827 828 828 829 830 831 832 833 835 835 836 837 838 839 839 840 841 841 842 843 844 845 846 846 846 846 847 847 847 848
809 811 813 815 818 821 823 823 824 825 826 826 827 828 829 829 830 831 832 833 834 835 836 836 837 838 839 839 840 841 841 842 843 844 844 845 845 846 846 847 847 848
811 813 815 816 817 820 821 821 823 824 825 826 826 827 828 828 829 830 831 832 833 834 835 836 836 837 838 839 839 840 841 841 842 843 843 844 844 845 845 845 846 846
813 815 817 818 819 821 821 822 823 824 825 825 825 826 827 828 828 829 829 830 831 833 834 835 835 836 837 838 838 839 840 840 841 842 842 843 843 843 844 844 844 844
814 816 818 819 821 822 823 824 824 825 825 826 826 827 827 828 828 829 829 830 831 832 833 833 834 835 836 837 837 838 839 839 840 840 841 841 842 842 842 843 843 843
815 816 818 820 821 821 822 824 825 826 827 827 828 829 828 828 828 829 829 830 830 831 832 832 833 834 835 836 837 837 838 838 839 839 839 840 840 841 841 841 841 841
816 817 818 820 821 821 822 823 824 826 827 828 828 829 829 828 828 828 829 829 829 830 830 831 832 833 834 835 835 836 837 837 838 838 838 839 839 839 840 840 839 839
819 819 820 821 821 821 822 823 825 826 826 827 828 828 828 828 827 828 828 828 828 829 829 830 831 832 832 833 834 834 835 835 835 836 836 836 837 837 837 837 838 837
821 821 821 822 822 822 823 824 825 826 827 827 827 827 827 827 827 827 827 827 827 828 828 829 830 831 831 831 832 832 832 832 832 833 833 833 833 834 835 835 835 835
823 823 823 823 823 824 825 825 826 826 827 827 826 826 826 826 826 826 826 826 826 827 827 828 828 829 829 829 829 830 830 830 830 830 831 831 831 832 832 833 833 832
826 826 826 825 826 826 826 826 826 826 827 827 827 827 827 826 826 826 825 826 826 826 827 827 827 827 827 827 827 827 828 829 829 829 829 829 829 829 830 830 830 830
828 828 828 828 828 828 827 827 827 826 827 827 826 827 826 826 825 825 825 825 826 826 826 826 825 825 825 825 825 826 826 827 828 828 828 828 827 827 827 827 827 826